Tracking 25378 objects as of 22-Jan-2022
HD Live streaming from Space Station
objects crossing your sky now

STARLINK-2707

Track STARLINK-2707 now!
10-day predictions
STARLINK-2707 is classified as:


NORAD ID: 48669
Int'l Code: 2021-044AH
Perigee: 553.4 km
Apogee: 555.3 km
Inclination: 53.1 °
Period: 95.6 minutes
Semi major axis: 6925 km
RCS: Unknown
Launch date: May 26, 2021
Source: United States (US)
Launch site: AIR FORCE EASTERN TEST RANGE (AFETR)
aabbcc
Your satellite tracking list
Your tracking list is empty




NASA's NSSDC Master Catalog

Two Line Element Set (TLE):
1 48669U 21044AH  22021.76644042  .00001414  00000-0  11376-3 0  9995
2 48669  53.0541  40.9404 0001397  82.2101 277.9047 15.06407684 37409
Source of the keplerian elements: AFSPC